SCP
0 0 0 0 0 0 0 0 0 0 0 0 0 0 0 0 0 0 0 0 0 0 0 0 0 0 0 0 0 0 0 0 0 0 0 0 0 0 0 0 0 0 0
0 0 0 0 0 0 0 0 0 0 0 0 0 0 0 0 0 0 0 0 0 0 0 0 0 0 0 0 0 0 0 0 0 0 0 0 0 0 0 0 0 0 0
-0 0 0 0 0 0 0 0 0 0 0 0 0 0 0 0 0 0 0 0 0 0 0 0 0 0 0 0 0 0 0 0 0 0 0 -0 0 0 0 0 0 0 0
0 0 0 0 0 0 0 0 0 0 0 0 0 0 0 0 0 0 0 0 0 0 0 0 0 0 0 0 0 0 0 0 0 0 0 0 0 0 0 0 0 0 0
0 0 0 0 0 0 0 0 0 0 0 0 0 0 0 0 0 0 0 0 0 0 0 0 0 0 0 0 0 0 0 0 0 0 0 0 0 0 0 0 0 0 0
0 -0 0 0 0 0 0 0 0 0 0 0 0 0 0 0 0 0 0 0 0 0 0 0 0 0 0 0 0 0 0 0 0 0 0 0 0 0 0 0 0 0 0
-0 -0 0 0 0 0 0 0 0 0 0 0 0 0 0 0 0 0 0 0 0 0 0 0 0 0 0 0 0 0 0 0 0 0 0 0 0 0 0 0 0 0 -0
0 0 0 0 0 0 0 0 0 0 0 0 0 0 0 0 0 0 0 0 0 0 0 0 0 0 0 0 0 0 0 0 0 0 0 0 0 0 0 0 0 0 0
0 0 0 0 0 0 0 0 0 0 0 0 0 0 0 0 0 0 0 0 0 0 0 0 0 0 0 0 0 0 0 0 0 0 0 0 0 0 0 0 0 0 0
0 0 0 0 0 0 0 0 0 0 0 0 0 0 0 0 0 0 0 0 0 0 0 0 0 0 0 0 0 0 0 0 0 0 0 0 0 0 0 0 0 0 0
0 0 0 0 0 0 0 0 0 0 0 0 0 0 0 0 0 0 0 0 0 0 0 0 0 0 0 0 0 0 0 0 0 0 0 0 0 0 0 0 0 0 0
0 0 0 0 0 0 0 0 0 0 0 0 0 0 0 0 0 0 0 0 0 0 0 0 0 0 0 0 0 0 0 0 0 0 0 0 0 0 0 0 0 -0 0
0 0 0 0 0 0 0 0 0 0 0 0 0 0 0 0 0 0 0 0 0 0 0 0 0 0 0 0 0 0 0 0 0 0 0 0 0 0 0 0 0 0 0
0 0 0 0 0 0 0 0 0 0 0 0 0 0 0 0 0 0 0 0 0 0 0 0 0 0 0 0 0 0 0 0 0 0 0 0 0 0 0 0 0 0 0
0 0 0 0 0 0 0 0 0 0 0 0 0 0 0 0 0 0 0 0 0 0 0 0 0 0 0 0 0 0 0 0 0 0 0 0 0 -0 -0 0 0 0 0
0 0 0 0 0 0 0 0 0 0 0 0 0 0 0 0 0 0 0 0 0 0 0 0 0 0 0 0 0 0 0 0 0 0 0 0 0 0 -0 -0 -0 0 0
0 0 0 0 0 0 0 0 0 0 0 0 0 0 0 0 0 0 0 0 0 0 0 0 0 0 0 0 0 0 0 0 0 0 0 0 0 0 0 -0 -0 -0 0
0 0 0 0 0 0 0 0 0 0 0 0 0 0 0 0 0 0 0 0 0 0 0 0 0 0 0 0 0 0 0 0 0 0 0 0 0 0 0 0 0 0 0
0 0 0 0 0 0 0 0 0 0 0 0 0 0 0 0 0 0 0 0 0 0 0 0 0 0 0 0 0 0 0 0 0 0 0 0 0 0 0 0 0 0 0
0 0 0 0 0 0 0 0 0 0 0 0 0 0 0 0 0 0 0 0 0 0 0 0 0 0 0 0 0 0 0 0 0 0 0 0 0 0 0 0 0 0 0
0 0 0 0 0 0 0 0 0 0 0 0 0 0 0 0 0 0 0 0 0 0 0 0 0 0 0 0 0 0 0 0 0 0 0 0 0 0 0 0 0 0 0
0 0 0 0 0 0 0 0 0 0 0 0 0 0 0 0 0 0 0 0 0 0 0 0 0 0 0 0 0 0 0 0 0 0 0 0 0 0 0 0 0 0 0
0 0 0 0 0 0 0 0 0 0 0 0 0 0 0 0 0 0 0 0 0 0 0 0 0 0 0 0 0 0 0 0 0 0 0 0 0 0 0 0 -0 0 0
0 0 0 0 0 0 0 0 0 0 0 0 0 0 0 0 0 0 0 0 0 0 0 0 0 0 0 0 0 0 0 0 0 0 0 0 0 0 0 0 0 -0 0
0 0 0 0 0 0 0 0 0 0 0 0 0 0 0 0 0 0 0 0 0 0 0 0 0 0 0 0 0 0 0 0 0 0 0 0 0 0 0 0 0 0 0
0 0 0 0 0 0 0 0 0 0 0 0 0 0 0 0 0 0 0 0 0 0 0 0 0 0 0 0 0 0 0 0 0 0 0 0 0 0 0 0 0 0 0
Wind_Speed_500mb
79 79 73 70 63 45 31 23 18 13 16 22 24 21 18 18 20 21 17 13 19 22 24 28 29 31 32 38 39 35 32 38 48 54 53 29 11 34 10 22 24 23 20
79 78 74 65 55 45 22 15 11 12 16 21 24 20 17 15 16 10 10 11 15 19 23 26 29 29 30 33 36 36 39 39 42 46 40 35 29 47 7 37 33 26 25
90 83 75 65 48 31 18 12 11 10 14 14 18 17 12 16 11 5 6 10 13 19 24 26 26 30 32 36 36 33 35 39 36 37 32 19 20 54 38 35 42 30 25
74 87 80 67 51 37 24 12 10 8 8 10 11 15 17 14 7 4 7 12 16 17 25 26 27 28 32 35 36 30 30 33 32 37 32 29 27 22 34 57 45 30 24
86 90 86 71 54 38 25 15 10 6 3 5 9 13 13 8 3 6 8 14 14 19 23 26 27 29 34 34 33 29 25 29 25 27 32 30 31 31 34 44 59 38 28
90 89 85 68 54 40 28 19 11 8 5 2 6 9 7 2 2 5 7 10 16 19 21 26 30 33 40 32 30 29 24 26 26 24 23 26 33 34 35 39 47 48 28
80 87 84 73 60 45 33 23 17 12 3 4 6 7 7 5 4 5 8 12 17 18 20 22 27 32 41 37 30 30 26 26 27 29 21 21 29 32 32 36 40 40 40
71 78 83 76 62 50 37 25 21 14 2 6 7 6 6 5 3 6 11 14 14 17 20 24 29 32 38 42 27 24 24 25 24 24 21 21 25 31 27 30 34 41 36
69 80 84 77 64 54 41 28 24 14 4 5 8 9 8 6 4 7 10 13 13 16 19 23 26 32 44 38 23 27 26 22 22 25 21 22 25 31 28 27 26 22 19
69 77 83 76 64 51 38 30 27 9 6 8 7 9 10 9 3 4 6 9 9 16 21 24 27 35 39 34 26 23 23 26 26 26 22 23 27 31 30 28 22 17 22
71 74 80 74 61 47 45 36 28 18 14 10 7 10 14 11 6 4 4 5 12 19 23 25 27 35 37 33 28 24 24 27 28 27 24 23 28 30 30 29 25 18 14
62 69 79 71 60 55 51 42 33 24 17 10 11 13 15 13 10 3 4 8 12 20 25 24 24 29 37 39 30 26 26 31 33 33 24 21 27 26 32 34 26 18 14
65 74 75 70 64 63 57 45 36 26 20 14 14 14 15 15 11 7 4 9 14 22 24 24 23 22 31 38 35 26 26 29 32 33 29 25 27 25 30 35 31 18 13
72 75 73 71 71 66 57 47 38 31 22 21 16 12 14 17 10 7 7 12 16 24 24 23 21 22 33 34 38 31 25 30 30 33 28 24 25 26 28 33 33 26 7
75 80 79 78 72 64 57 48 37 30 26 26 15 12 18 17 11 8 10 13 18 23 25 25 22 24 34 35 42 32 25 24 30 31 30 20 19 22 23 28 32 28 22
80 81 80 77 74 68 59 49 38 33 34 25 14 14 23 16 10 6 8 13 20 22 25 24 23 22 28 36 39 31 30 22 26 29 29 21 17 18 20 22 25 25 18
83 87 84 82 80 72 60 48 36 37 34 22 11 20 20 16 12 11 13 15 19 24 25 24 17 17 24 30 37 32 27 26 18 24 29 23 18 18 16 20 21 23 21
78 81 80 83 79 70 54 43 37 37 30 21 11 19 20 14 10 12 18 20 16 21 21 17 17 20 25 32 35 31 27 21 19 23 28 30 22 20 17 15 16 17 21
79 82 81 85 77 61 50 43 37 34 30 23 16 14 17 13 15 16 18 18 17 17 18 17 16 19 20 23 28 35 28 23 23 20 24 29 27 25 19 18 17 13 11
69 77 82 78 63 55 47 38 35 36 33 24 20 12 13 15 18 20 19 20 22 17 20 20 18 20 23 25 31 37 31 25 21 22 20 20 25 30 29 18 18 13 12
67 71 69 61 56 49 40 34 33 35 24 21 20 19 18 16 16 22 17 18 16 17 18 18 19 21 27 27 37 35 29 27 25 23 21 15 18 24 29 22 20 13 11
55 54 54 55 49 38 31 32 30 23 26 24 20 22 19 18 19 16 13 12 13 11 17 19 17 19 26 27 32 29 28 24 24 15 17 19 19 17 27 26 24 19 15
49 49 52 47 39 31 28 29 28 27 26 26 23 21 21 21 18 15 5 6 4 9 17 16 17 20 26 27 28 21 24 18 18 15 17 17 20 22 22 25 27 25 17
55 53 47 41 35 29 24 22 19 17 22 26 23 21 19 14 10 8 7 6 10 12 15 16 17 20 26 25 24 17 22 17 18 16 19 19 19 24 28 26 23 27 28
52 44 37 30 27 28 27 21 13 11 15 21 18 13 13 13 14 8 6 9 11 14 16 20 23 22 23 24 26 22 23 22 21 21 22 24 25 25 27 26 21 23 25
44 38 30 28 27 22 27 17 9 6 14 19 16 16 14 15 9 6 5 11 8 8 14 22 23 20 21 23 21 18 21 22 21 20 21 23 25 24 26 27 24 22 27
Wind_Direction_500mb
181 188 191 192 193 195 205 244 238 251 274 270 266 271 286 303 331 354 17 24 28 27 27 22 9 6 4 5 359 357 351 354 351 351 353 23 343 357 1 358 343 337 331
189 191 193 194 195 188 202 215 240 255 269 257 263 262 276 299 334 355 8 32 30 23 15 7 4 3 1 360 359 356 355 358 359 358 356 357 5 350 296 9 4 2 346
196 195 194 196 193 192 206 217 244 256 274 256 250 254 278 311 326 332 350 4 17 14 6 1 4 3 0 1 357 354 351 351 5 8 7 347 338 339 329 348 4 358 348
192 195 196 197 195 202 207 222 251 261 282 272 269 273 283 282 277 317 352 356 358 7 9 7 358 355 356 357 358 354 350 351 0 356 359 348 347 325 324 332 353 357 348
199 202 201 197 197 201 200 216 250 257 264 223 257 255 251 250 289 344 340 343 11 6 2 6 2 359 354 351 352 352 351 351 350 347 341 344 350 347 334 322 334 348 345
206 205 199 193 196 195 203 214 231 231 232 259 272 257 235 239 341 6 357 5 4 7 10 11 10 8 2 356 357 352 344 346 349 342 341 347 345 337 337 329 329 334 340
197 196 195 192 194 199 205 215 216 233 209 290 280 250 246 236 318 357 14 11 7 14 8 2 3 3 7 0 353 356 350 344 342 342 337 342 344 334 328 333 329 329 338
192 191 197 197 198 203 207 216 210 225 267 307 304 270 234 243 318 8 8 4 0 352 351 353 352 348 349 349 346 347 351 351 343 343 337 342 341 338 332 326 327 328 336
193 200 202 201 202 204 207 212 212 206 249 278 293 269 225 231 286 352 346 347 348 344 348 352 354 352 345 349 356 354 351 347 344 346 342 341 344 340 343 334 322 318 321
190 200 204 201 204 206 203 205 213 215 238 244 280 267 241 236 261 352 325 323 334 343 347 350 357 357 2 8 357 354 1 2 352 351 348 346 343 344 349 343 327 309 290
192 201 202 203 205 203 204 211 207 216 233 228 285 287 254 233 207 267 336 333 333 334 337 344 352 1 6 6 6 1 353 354 353 352 347 354 346 348 352 351 336 317 290
198 196 203 202 201 205 206 210 208 217 221 240 274 284 248 219 205 244 269 321 336 338 338 338 341 358 9 5 359 3 360 354 349 351 350 347 338 352 358 360 352 327 294
186 198 201 202 204 205 205 208 210 213 220 236 251 265 234 200 203 219 283 324 330 334 338 337 338 347 2 8 2 351 359 357 340 347 345 346 345 352 3 358 1 346 308
194 198 199 204 204 203 208 208 207 212 220 221 240 253 224 184 190 227 275 314 326 331 331 334 337 348 354 356 358 353 350 354 347 352 347 347 352 1 5 4 11 23 60
199 202 201 202 201 203 208 207 210 214 218 219 233 256 189 188 210 254 279 312 326 322 321 328 330 343 348 352 348 346 349 351 345 355 356 348 357 0 8 7 16 28 46
201 206 205 205 203 206 207 207 213 215 210 215 239 200 182 198 224 260 291 317 330 326 316 324 333 332 344 357 1 354 350 347 347 358 11 9 1 7 7 8 16 23 30
204 208 209 210 207 208 209 212 214 208 205 210 240 198 187 214 241 262 288 307 325 327 325 329 327 331 356 359 1 359 348 353 348 360 5 3 357 4 10 9 6 20 25
209 211 212 208 210 211 209 210 209 207 203 204 219 200 199 212 250 278 288 295 319 327 334 343 348 353 358 358 356 352 352 347 351 356 1 6 359 354 3 26 353 5 11
218 217 214 210 209 208 208 206 207 206 204 207 198 197 206 233 261 297 300 316 313 321 347 350 356 354 344 332 349 351 346 347 348 352 356 4 8 1 346 337 336 342 11
213 213 212 209 205 204 201 208 209 207 210 211 203 219 234 243 257 276 293 312 312 318 333 338 343 324 324 321 341 341 341 339 338 346 345 350 358 6 358 345 345 333 335
210 209 207 202 199 197 201 208 210 210 211 202 217 225 238 262 266 284 282 294 322 318 335 335 337 331 315 322 335 336 339 334 332 328 336 341 345 354 3 355 351 355 351
199 201 190 183 188 194 196 204 210 201 194 205 230 227 242 258 273 270 281 290 293 328 342 351 353 355 347 332 337 342 340 339 343 348 1 354 343 351 358 6 355 329 333
182 178 174 175 178 184 196 203 193 196 212 210 215 225 241 259 262 245 257 20 24 342 342 351 350 353 357 355 348 359 3 3 2 6 1 8 359 354 351 356 4 354 323
164 164 169 173 175 184 193 198 195 205 213 214 225 237 248 241 233 208 209 283 296 303 340 338 336 339 351 358 10 13 11 16 2 355 352 360 2 359 354 346 350 355 354
160 164 169 171 171 171 181 190 220 232 233 208 209 239 219 198 181 210 253 282 295 306 320 332 323 318 333 354 13 13 6 4 357 349 341 339 339 338 343 345 342 339 337
161 163 163 159 158 161 182 186 194 242 202 201 221 201 190 194 234 251 284 287 273 329 321 305 318 307 317 343 360 5 355 347 343 340 349 350 346 343 339 337 346 339 350
Wind_Speed_850mb
79 79 73 70 63 45 31 23 18 13 16 22 24 21 18 18 20 21 17 13 19 22 24 28 29 31 32 38 39 35 32 38 48 54 53 29 11 34 10 22 24 23 20
79 78 74 65 55 45 22 15 11 12 16 21 24 20 17 15 16 10 10 11 15 19 23 26 29 29 30 33 36 36 39 39 42 46 40 35 29 47 7 37 33 26 25
90 83 75 65 48 31 18 12 11 10 14 14 18 17 12 16 11 5 6 10 13 19 24 26 26 30 32 36 36 33 35 39 36 37 32 19 20 54 38 35 42 30 25
74 87 80 67 51 37 24 12 10 8 8 10 11 15 17 14 7 4 7 12 16 17 25 26 27 28 32 35 36 30 30 33 32 37 32 29 27 22 34 57 45 30 24
86 90 86 71 54 38 25 15 10 6 3 5 9 13 13 8 3 6 8 14 14 19 23 26 27 29 34 34 33 29 25 29 25 27 32 30 31 31 34 44 59 38 28
90 89 85 68 54 40 28 19 11 8 5 2 6 9 7 2 2 5 7 10 16 19 21 26 30 33 40 32 30 29 24 26 26 24 23 26 33 34 35 39 47 48 28
80 87 84 73 60 45 33 23 17 12 3 4 6 7 7 5 4 5 8 12 17 18 20 22 27 32 41 37 30 30 26 26 27 29 21 21 29 32 32 36 40 40 40
71 78 83 76 62 50 37 25 21 14 2 6 7 6 6 5 3 6 11 14 14 17 20 24 29 32 38 42 27 24 24 25 24 24 21 21 25 31 27 30 34 41 36
69 80 84 77 64 54 41 28 24 14 4 5 8 9 8 6 4 7 10 13 13 16 19 23 26 32 44 38 23 27 26 22 22 25 21 22 25 31 28 27 26 22 19
69 77 83 76 64 51 38 30 27 9 6 8 7 9 10 9 3 4 6 9 9 16 21 24 27 35 39 34 26 23 23 26 26 26 22 23 27 31 30 28 22 17 22
71 74 80 74 61 47 45 36 28 18 14 10 7 10 14 11 6 4 4 5 12 19 23 25 27 35 37 33 28 24 24 27 28 27 24 23 28 30 30 29 25 18 14
62 69 79 71 60 55 51 42 33 24 17 10 11 13 15 13 10 3 4 8 12 20 25 24 24 29 37 39 30 26 26 31 33 33 24 21 27 26 32 34 26 18 14
65 74 75 70 64 63 57 45 36 26 20 14 14 14 15 15 11 7 4 9 14 22 24 24 23 22 31 38 35 26 26 29 32 33 29 25 27 25 30 35 31 18 13
72 75 73 71 71 66 57 47 38 31 22 21 16 12 14 17 10 7 7 12 16 24 24 23 21 22 33 34 38 31 25 30 30 33 28 24 25 26 28 33 33 26 7
75 80 79 78 72 64 57 48 37 30 26 26 15 12 18 17 11 8 10 13 18 23 25 25 22 24 34 35 42 32 25 24 30 31 30 20 19 22 23 28 32 28 22
80 81 80 77 74 68 59 49 38 33 34 25 14 14 23 16 10 6 8 13 20 22 25 24 23 22 28 36 39 31 30 22 26 29 29 21 17 18 20 22 25 25 18
83 87 84 82 80 72 60 48 36 37 34 22 11 20 20 16 12 11 13 15 19 24 25 24 17 17 24 30 37 32 27 26 18 24 29 23 18 18 16 20 21 23 21
78 81 80 83 79 70 54 43 37 37 30 21 11 19 20 14 10 12 18 20 16 21 21 17 17 20 25 32 35 31 27 21 19 23 28 30 22 20 17 15 16 17 21
79 82 81 85 77 61 50 43 37 34 30 23 16 14 17 13 15 16 18 18 17 17 18 17 16 19 20 23 28 35 28 23 23 20 24 29 27 25 19 18 17 13 11
69 77 82 78 63 55 47 38 35 36 33 24 20 12 13 15 18 20 19 20 22 17 20 20 18 20 23 25 31 37 31 25 21 22 20 20 25 30 29 18 18 13 12
67 71 69 61 56 49 40 34 33 35 24 21 20 19 18 16 16 22 17 18 16 17 18 18 19 21 27 27 37 35 29 27 25 23 21 15 18 24 29 22 20 13 11
55 54 54 55 49 38 31 32 30 23 26 24 20 22 19 18 19 16 13 12 13 11 17 19 17 19 26 27 32 29 28 24 24 15 17 19 19 17 27 26 24 19 15
49 49 52 47 39 31 28 29 28 27 26 26 23 21 21 21 18 15 5 6 4 9 17 16 17 20 26 27 28 21 24 18 18 15 17 17 20 22 22 25 27 25 17
55 53 47 41 35 29 24 22 19 17 22 26 23 21 19 14 10 8 7 6 10 12 15 16 17 20 26 25 24 17 22 17 18 16 19 19 19 24 28 26 23 27 28
52 44 37 30 27 28 27 21 13 11 15 21 18 13 13 13 14 8 6 9 11 14 16 20 23 22 23 24 26 22 23 22 21 21 22 24 25 25 27 26 21 23 25
44 38 30 28 27 22 27 17 9 6 14 19 16 16 14 15 9 6 5 11 8 8 14 22 23 20 21 23 21 18 21 22 21 20 21 23 25 24 26 27 24 22 27
Wind_Direction_850mb
181 188 191 192 193 195 205 244 238 251 274 270 266 271 286 303 331 354 17 24 28 27 27 22 9 6 4 5 359 357 351 354 351 351 353 23 343 357 1 358 343 337 331
189 191 193 194 195 188 202 215 240 255 269 257 263 262 276 299 334 355 8 32 30 23 15 7 4 3 1 360 359 356 355 358 359 358 356 357 5 350 296 9 4 2 346
196 195 194 196 193 192 206 217 244 256 274 256 250 254 278 311 326 332 350 4 17 14 6 1 4 3 0 1 357 354 351 351 5 8 7 347 338 339 329 348 4 358 348
192 195 196 197 195 202 207 222 251 261 282 272 269 273 283 282 277 317 352 356 358 7 9 7 358 355 356 357 358 354 350 351 0 356 359 348 347 325 324 332 353 357 348
199 202 201 197 197 201 200 216 250 257 264 223 257 255 251 250 289 344 340 343 11 6 2 6 2 359 354 351 352 352 351 351 350 347 341 344 350 347 334 322 334 348 345
206 205 199 193 196 195 203 214 231 231 232 259 272 257 235 239 341 6 357 5 4 7 10 11 10 8 2 356 357 352 344 346 349 342 341 347 345 337 337 329 329 334 340
197 196 195 192 194 199 205 215 216 233 209 290 280 250 246 236 318 357 14 11 7 14 8 2 3 3 7 0 353 356 350 344 342 342 337 342 344 334 328 333 329 329 338
192 191 197 197 198 203 207 216 210 225 267 307 304 270 234 243 318 8 8 4 0 352 351 353 352 348 349 349 346 347 351 351 343 343 337 342 341 338 332 326 327 328 336
193 200 202 201 202 204 207 212 212 206 249 278 293 269 225 231 286 352 346 347 348 344 348 352 354 352 345 349 356 354 351 347 344 346 342 341 344 340 343 334 322 318 321
190 200 204 201 204 206 203 205 213 215 238 244 280 267 241 236 261 352 325 323 334 343 347 350 357 357 2 8 357 354 1 2 352 351 348 346 343 344 349 343 327 309 290
192 201 202 203 205 203 204 211 207 216 233 228 285 287 254 233 207 267 336 333 333 334 337 344 352 1 6 6 6 1 353 354 353 352 347 354 346 348 352 351 336 317 290
198 196 203 202 201 205 206 210 208 217 221 240 274 284 248 219 205 244 269 321 336 338 338 338 341 358 9 5 359 3 360 354 349 351 350 347 338 352 358 360 352 327 294
186 198 201 202 204 205 205 208 210 213 220 236 251 265 234 200 203 219 283 324 330 334 338 337 338 347 2 8 2 351 359 357 340 347 345 346 345 352 3 358 1 346 308
194 198 199 204 204 203 208 208 207 212 220 221 240 253 224 184 190 227 275 314 326 331 331 334 337 348 354 356 358 353 350 354 347 352 347 347 352 1 5 4 11 23 60
199 202 201 202 201 203 208 207 210 214 218 219 233 256 189 188 210 254 279 312 326 322 321 328 330 343 348 352 348 346 349 351 345 355 356 348 357 0 8 7 16 28 46
201 206 205 205 203 206 207 207 213 215 210 215 239 200 182 198 224 260 291 317 330 326 316 324 333 332 344 357 1 354 350 347 347 358 11 9 1 7 7 8 16 23 30
204 208 209 210 207 208 209 212 214 208 205 210 240 198 187 214 241 262 288 307 325 327 325 329 327 331 356 359 1 359 348 353 348 360 5 3 357 4 10 9 6 20 25
209 211 212 208 210 211 209 210 209 207 203 204 219 200 199 212 250 278 288 295 319 327 334 343 348 353 358 358 356 352 352 347 351 356 1 6 359 354 3 26 353 5 11
218 217 214 210 209 208 208 206 207 206 204 207 198 197 206 233 261 297 300 316 313 321 347 350 356 354 344 332 349 351 346 347 348 352 356 4 8 1 346 337 336 342 11
213 213 212 209 205 204 201 208 209 207 210 211 203 219 234 243 257 276 293 312 312 318 333 338 343 324 324 321 341 341 341 339 338 346 345 350 358 6 358 345 345 333 335
210 209 207 202 199 197 201 208 210 210 211 202 217 225 238 262 266 284 282 294 322 318 335 335 337 331 315 322 335 336 339 334 332 328 336 341 345 354 3 355 351 355 351
199 201 190 183 188 194 196 204 210 201 194 205 230 227 242 258 273 270 281 290 293 328 342 351 353 355 347 332 337 342 340 339 343 348 1 354 343 351 358 6 355 329 333
182 178 174 175 178 184 196 203 193 196 212 210 215 225 241 259 262 245 257 20 24 342 342 351 350 353 357 355 348 359 3 3 2 6 1 8 359 354 351 356 4 354 323
164 164 169 173 175 184 193 198 195 205 213 214 225 237 248 241 233 208 209 283 296 303 340 338 336 339 351 358 10 13 11 16 2 355 352 360 2 359 354 346 350 355 354
160 164 169 171 171 171 181 190 220 232 233 208 209 239 219 198 181 210 253 282 295 306 320 332 323 318 333 354 13 13 6 4 357 349 341 339 339 338 343 345 342 339 337
161 163 163 159 158 161 182 186 194 242 202 201 221 201 190 194 234 251 284 287 273 329 321 305 318 307 317 343 360 5 355 347 343 340 349 350 346 343 339 337 346 339 350